Погода в Анапе

Погода в Анапе : погода сейчас, прогноз погоды и архив. Всё, что Вы хотите узнать о погоде в Анапе!

Поиск расширенной информации на нашем сайте:

Другие новости

Новости СМИ2

Главная страница сайта

Новости сайта

02.10.2013

Напоминаем, что на нашем новом сайте вы можете получить высокодетализированные прогнозы погоды по пунктам России, СНГ и мира (включающие важные для авиации метеовеличины, такие как направление и скорость ветра, видимость, явления погоды, количество и форма облачности, нижняя и верхняя граница облачности), а также ознакомиться с разнообразными материалами по авиационной метеорологии и подборкой полезных ссылок на эту тему.

Сайт Метеоцентр.Азия посвящён разработке технологий оптимизации авиаметеорологического обслуживания, включая проектирование и перспективное создание нескольких автоматизированных авиаметеорологических систем:
- система выпуска высокодетальных прогностических карт явлений погоды для нижнего воздушного пространства по России и ближнему зарубежью;
- система верификации прогнозов TAF (выпускаемых синоптиками официальных АМСГ РФ и ближнего зарубежья) и AUTOTAF (выпускаемых сайтом Метеоцентр.Азия) - выявление ошибок, онлайн-сопоставление с фактической погодой METAR, автоматическое внесение коррективов в прогнозы при резком отклонении фактической погоды от прогноза, подсчёт оправдываемости прогнозов по элементам и в целом;
- система обработки, анализа и отображения авиаметеорологической информации для применения провайдерами метеорологической информации.


Погода в Анапе - сегодня

Время (UTC), дата Ветер
(°,м/с) 
Видим.   Явления Облачность Т
(°С)
Тd
(°С)
f(%) Тe
(°С)
Pmin
(гПа)
dP
(гПа)
Po
(мм)
O2
(г/м3)
Тmin Tmax R s Состояние
почвы
06 21.03.17 300 (СЗ) 10 км    6/3 600 м средняя 
[Sc|Ac trans]
+7.8 +3.5 74 +9  1015.6  1.2  759  297           
09 21.03.17 240 (ЮЗ) 10 км    3/3 600 м 
[Sc]
+9.1 +4.8 74 +8  1016.4  0.9  759  295           
12 21.03.17 240 (ЮЗ) 20000 м    4/3 600 м средняя 
[Sc|Ac trans]
+10 +3.8 65 +9  1016.6  0.2  759  295           
15 21.03.17 220 (ЮЗ) 20000 м    8/0 средняя 
[Ac trans]
+8.1 +4 75 +7  1017.1  0.4  760  297    +10       
18 21.03.17 220 (ЮЗ) 10 км    9/9 600 м 
[Sc]
+7.9 +3.5 74 +7  1018  0.9  760  297           
21 21.03.17 100 (В) 10 км  слаб. ливневой дождь  10/10 300 м кучево-дожд. 
[Cb cap]
+7.2 +2.9 74 +8  1018.2  0.2  761  298           
00 22.03.17 060 (СВ) 2{12}  10 км  {ливн. осадки}  10/10 300 м кучево-дожд. 
[Cb cap]
+5.7 +1.8 76 +5  1019.1  0.9  761  300           
03 22.03.17 050 (СВ) 4000 м  дымка{ливн. осадки}  ясно 
+3.1 +2.1 93 +4  1019.9  0.7  762  303  +3.1       
06 22.03.17 180 (Ю) 10 км  {ливн. осадки}  8/0 верхняя 
[Ci sp]
+7.3 +3.9 79 +7  1021.1  1.3  763  299  +2.6         
09 22.03.17 240 (ЮЗ) 20000 м    5/1 600 м верхняя 
[Cu med, cong|Ci fib]
+9 +5 76 +9  1021.5  0.4  763  297           
12 22.03.17 270 (З) 10 км    8/3 600 м кучево-дожд., средняя 
[Cb cap|Ac trans]
+9.8 +4.7 71 +9  1021.5  763  296           
15 22.03.17 270 (З) 10 км    6/0 средняя 
[Ac trans]
+9.5 +5.5 76 +10  1021.4  0.1  763  296    +11       
18 22.03.17 040 (СВ) 10 км    ясно 
+7.3 +3.5 77 +7  1022.2  0.8  764  299           
21 22.03.17 060 (СВ) 10 км    ясно 
+4.9 +3.2 89 +6  1022.7  0.5  764  302           
00 23.03.17 050 (СВ) 10 км    ясно 
+3.7 +2.1 89 +5  1022.6  -0.2  764  303           
03 23.03.17 060 (СВ) 4000 м  дымка  ясно 
+3.1 +1.6 90 +3  1022.5  -0.1  764  304  +3.1         
06 23.03.17 010 (С) 10 км    3/0 верхняя 
[Ci fib]
+8.4 +3.2 70 +8  1023.5  765  298  +2.8         
09 23.03.17 340 (С) 20000 м    1/1 600 м 
[Cu hum]
+12.6 +5.7 63 +13  1023.5  0.1  765  294           
12 23.03.17 340 (С) 20000 м    3/3 600 м 
[Cu hum]
+14 +3.5 49 +14  1023.2  -0.3  764  292           
15 23.03.17 360 (С) 20000 м    ясно 
+12.8 +2.6 50 +13  1023.8  0.6  765  294    +14.8       
18 23.03.17 030 (СВ) 10 км    ясно 
+9 +3.3 67 +9  1025  1.1  766  298           
21 23.03.17 040 (СВ) 10 км    ясно 
+8.4 +1.4 61 +8  1025.5  0.5  766  299           
00 24.03.17 110 (В) 10 км    ясно 
+6.1 +1.3 71 +7  1025.7  0.2  766  302           
03 24.03.17 160 (Ю) 4000 м  дымка  ясно 
+7 +5.9 93 +7  1025.9  0.2  766  300  +6.1         
06 24.03.17 170 (Ю) 10 км    ясно 
+8.7 +6.5 86 +8  1026.6  0.7  767  298           
Время (UTC), дата Ветер
(°,м/с) 
Видим.   Явления Облачность Т
(°С)
Тd
(°С)
f(%) Тe
(°С)
Pmin
(гПа)
dP
(гПа)
Po
(мм)
O2
(г/м3)
Тmin Tmax R s Состояние
почвы

Для получения пояснительной информации подведите курсор к названию столбца.

ПОГОДА в Анапе - архив

Всё, что Вы хотите узнать о погоде в Анапе - удобно и подробно!

Выберите нужную дату (начиная с 1 января 2015* года) и нажмите кнопку "Найти".
Будут отображены архивные сводки погоды по пункту Анапа, начиная с указанной даты.


Отображать данные в формате CSV (для использования в таблицах Excel)


Внимание! Наш архив погоды предназначен исключительно для личного некоммерческого использования в познавательных целях. Если Вам необходимы официальные справки о состоянии погоды (для производственных, юридических, коммерческих и т.п. целей), обращайтесь в органы Росгидромета.

*Примечание: данная дата относится к архиву по метеостанциям СССР (Россия, СНГ, Балтия).
Архив по метеостанциям Зарубежной Европы и Азии (кроме Китая) хранится 10 дней, по другим регионам земного шара (Китай, Африка, Америка, Австралия, Океания) - 1 день.

Анапа - район местоположения метеостанции


Название, широта, долгота, высота метеостанции:
Анапа (обсерватория) 44.97°ш. 37.30°д. 23 м над ур. моря [Российская Федерация]

Дополнительная информация

В oтличие oт бoльшинства пoгoдных сайтoв мы публикуем пoдрoбную метеoинфoрмацию в детальнoм прoфессиoнальнoм фoрмате.

Характеристики температуры и влажнoсти вoздуха измеряются на высoте 2 м в тени вдали oт зданий и деревьев.
Скoрoсть ветра измеряется на высoте 10 м (на урoвне рoста челoвека скoрoсть ветра ниже в 1.5-2 раза). Если метеoстанция нахoдится в гoрoде или в лесу, тo скoрoсть ветра занижена на 2-4 м/с пo сравнению с oткрытым местoм. Скoрoсть ветра над акватoриями крупных рек и oзёр, а также на вершинах хoлмoв на 2-5 м/с выше, чем в oбычных услoвиях.
Атмoсфернoе давление в разных тoчках местнoсти мoжет значительнo oтличаться oт давления на метеoстанции, в зависимoсти oт услoвий рельефа (при пoдъёме на 10 м давление пoнижается примернo на 1 мм рт.ст.).